Marion, IN

4:39 AM EDT on May 27, 2017 (GMT -0400)
Marion Municipal

Weather History for KMZZ - March, 2013

Change the Weather History Date:

Friday, March 15, 2013

  Actual Average (KMIE) Record (KMIE)
Temperature  
Mean Temperature 38 °F -  
Max Temperature 46 °F 47 °F 79 °F (2012)
Min Temperature 29 °F 29 °F 9 °F (1993)
Degree Days  
Heating Degree Days 28    
Moisture  
Dew Point 33 °F    
Average Humidity 85    
Maximum Humidity 95    
Minimum Humidity 68    
Precipitation  
Precipitation 0.00 in - - ()
Sea Level Pressure  
Sea Level Pressure 29.95 in    
Wind  
Wind Speed 6 mph (SSW)    
Max Wind Speed 9 mph    
Max Gust Speed -    
Visibility 6 miles    
Events Rain    
Averages and records for this station are not official NWS values.
T = Trace of Precipitation, MM = Missing Value Source: NWS Daily Summary

Daily Weather History Graph

Daily Weather History Graph

Search for Another Location

Airport or City:

Trip Planner

Search our weather history database for the weather conditions in past years. The results will help you decide how hot, cold, wet, or windy it might be!

Date:

Astronomy

Mar. 15, 2013 Rise Set
Actual Time 7:53 AM EDT 7:49 PM EDT
Civil Twilight 7:26 AM EDT 8:16 PM EDT
Nautical Twilight 6:55 AM EDT 8:48 PM EDT
Astronomical Twilight 6:23 AM EDT 9:20 PM EDT
Moon 9:42 AM EDT (3/15) No Moon Set
Length of Visible Light 12h 50m
Length of Day
11h 55m
Waxing Crescent, 15% of the Moon is Illuminated
Mar 15
Waxing Crescent
Mar 19
First Quarter
Mar 27
Full
Apr 3
Last Quarter
Apr 10
New

Hourly Weather History & Observations

Time (EDT) Temp. Windchill Dew Point Humidity Pressure Visibility Wind Dir Wind Speed Gust Speed Precip Events Conditions
12:15 AM 32.0 °F 24.8 °F 28.8 °F 88% 30.14 in 10.0 mi SW 8.1 mph - N/A   Overcast
12:35 AM 32.0 °F 26.4 °F 28.9 °F 88% 30.13 in 7.0 mi SW 5.8 mph - N/A   Mostly Cloudy
12:55 AM 32.0 °F 25.6 °F 28.9 °F 88% 30.14 in 4.0 mi WSW 6.9 mph - N/A   Clear
1:15 AM 31.8 °F 26.2 °F 29.1 °F 90% 30.13 in 7.0 mi SW 5.8 mph - N/A   Scattered Clouds
1:35 AM 31.8 °F 25.4 °F 29.7 °F 92% 30.14 in 7.0 mi WSW 6.9 mph - N/A   Mostly Cloudy
1:55 AM 32.0 °F 24.8 °F 30.0 °F 92% 30.12 in 7.0 mi SW 8.1 mph - N/A   Overcast
2:15 AM 31.6 °F 26.0 °F 29.7 °F 92% 30.10 in 7.0 mi SSW 5.8 mph - N/A   Scattered Clouds
2:35 AM 31.1 °F 26.4 °F 29.3 °F 93% 30.10 in 7.0 mi SSW 4.6 mph - N/A   Clear
2:55 AM 30.6 °F 24.7 °F 28.9 °F 94% 30.09 in 5.0 mi SSW 5.8 mph - N/A   Clear
3:15 AM 30.6 °F 24.7 °F 28.9 °F 94% 30.08 in 7.0 mi SSW 5.8 mph - N/A   Clear
3:35 AM 30.2 °F 25.4 °F 28.8 °F 94% 30.08 in 5.0 mi SSW 4.6 mph - N/A   Clear
3:55 AM 30.2 °F 25.4 °F 28.6 °F 94% 30.08 in 5.0 mi SSW 4.6 mph - N/A   Clear
4:15 AM 30.2 °F 26.7 °F 28.8 °F 94% 30.06 in 4.0 mi SSW 3.5 mph - N/A   Clear
4:35 AM 30.2 °F 26.7 °F 28.8 °F 94% 30.05 in 5.0 mi SSW 3.5 mph - N/A   Clear
4:55 AM 30.2 °F 25.4 °F 28.9 °F 95% 30.04 in 4.0 mi SSW 4.6 mph - N/A   Clear
5:15 AM 30.2 °F 25.4 °F 28.9 °F 95% 30.04 in 4.0 mi SSW 4.6 mph - N/A   Clear
5:35 AM 30.0 °F 24.1 °F 28.8 °F 95% 30.03 in 5.0 mi SSW 5.8 mph - N/A   Clear
5:55 AM 29.8 °F 24.9 °F 28.4 °F 94% 30.02 in 4.0 mi SSW 4.6 mph - N/A   Clear
6:15 AM 29.8 °F 24.9 °F 28.6 °F 95% 30.01 in 5.0 mi South 4.6 mph - N/A   Clear
6:35 AM 30.0 °F 24.1 °F 28.8 °F 95% 30.01 in 5.0 mi South 5.8 mph - N/A   Clear
6:55 AM 30.2 °F 24.3 °F 28.8 °F 94% 30.01 in 4.0 mi SSW 5.8 mph - N/A   Clear
7:15 AM 29.8 °F 23.9 °F 28.4 °F 94% 30.00 in 4.0 mi SSW 5.8 mph - N/A   Clear
7:35 AM 29.7 °F 22.8 °F 28.4 °F 95% 29.99 in 4.0 mi SSW 6.9 mph - N/A   Clear
7:55 AM 29.7 °F 22.8 °F 28.4 °F 95% 29.99 in 3.0 mi SSW 6.9 mph - N/A   Clear
8:15 AM 29.8 °F 23.9 °F 28.4 °F 94% 29.99 in 3.0 mi SSW 5.8 mph - N/A   Clear
8:35 AM 29.8 °F 23.0 °F 28.6 °F 95% 29.99 in 3.0 mi SSW 6.9 mph - N/A   Clear
8:55 AM 30.4 °F 22.9 °F 29.1 °F 95% 29.99 in 4.0 mi SSW 8.1 mph - N/A   Clear
9:15 AM 31.3 °F 24.7 °F 29.8 °F 94% 29.99 in 4.0 mi SW 6.9 mph - N/A   Clear
9:35 AM 31.6 °F 25.1 °F 30.0 °F 94% 29.99 in 4.0 mi SW 6.9 mph - N/A   Clear
9:55 AM 31.8 °F 24.6 °F 30.0 °F 93% 29.97 in 4.0 mi SSW 8.1 mph - N/A   Clear
10:15 AM 32.0 °F 25.6 °F 30.4 °F 94% 29.97 in 4.0 mi SW 6.9 mph - N/A   Clear
10:35 AM 32.5 °F 26.2 °F 30.6 °F 92% 29.97 in 5.0 mi SW 6.9 mph - N/A   Clear
11:55 AM 35.1 °F 28.6 °F 31.1 °F 85% 29.96 in 7.0 mi West 8.1 mph - N/A   Clear
12:15 PM 36.0 °F 29.6 °F 31.6 °F 84% 29.95 in 7.0 mi WSW 8.1 mph - N/A   Clear
12:35 PM 36.9 °F 31.4 °F 32.0 °F 83% 29.95 in 5.0 mi West 6.9 mph - N/A   Haze
12:55 PM 37.8 °F 31.8 °F 32.0 °F 80% 29.95 in 7.0 mi WSW 8.1 mph - N/A   Clear
1:15 PM 38.5 °F 34.1 °F 32.0 °F 78% 29.94 in 7.0 mi West 5.8 mph - N/A   Clear
1:35 PM 39.7 °F 34.9 °F 32.7 °F 76% 29.93 in 7.0 mi WSW 6.9 mph - N/A   Clear
1:55 PM 41.7 °F 38.0 °F 33.6 °F 73% 29.93 in 7.0 mi WSW 5.8 mph - N/A   Clear
2:15 PM 42.4 °F 38.8 °F 34.5 °F 74% 29.92 in 7.0 mi WSW 5.8 mph - N/A   Clear
2:35 PM 43.3 °F 39.2 °F 35.1 °F 73% 29.91 in 7.0 mi WSW 6.9 mph - N/A   Clear
2:55 PM 44.4 °F 40.5 °F 35.4 °F 71% 29.90 in 10.0 mi SW 6.9 mph - N/A   Clear
3:15 PM 45.5 °F 40.8 °F 36.1 °F 70% 29.90 in 10.0 mi WSW 9.2 mph - N/A   Mostly Cloudy
3:35 PM 46.2 °F 41.7 °F 36.3 °F 68% 29.89 in 5.0 mi WSW 9.2 mph - N/A   Haze
3:55 PM 46.4 °F 41.9 °F 36.7 °F 69% 29.89 in 7.0 mi West 9.2 mph - N/A   Scattered Clouds
4:15 PM 46.9 °F - 36.7 °F 68% 29.89 in 7.0 mi West 8.1 mph - N/A   Clear
4:35 PM 46.6 °F - 36.5 °F 68% 29.88 in 7.0 mi West 9.2 mph - N/A   Mostly Cloudy
4:55 PM 46.6 °F - 36.5 °F 68% 29.88 in 7.0 mi WSW 6.9 mph - N/A   Overcast
5:15 PM 46.2 °F 42.7 °F 37.4 °F 71% 29.87 in 7.0 mi SW 6.9 mph - N/A Rain Light Rain
5:35 PM 45.5 °F 41.8 °F 38.5 °F 76% 29.88 in 7.0 mi WSW 6.9 mph - N/A Rain Light Rain
5:55 PM 45.3 °F 44.0 °F 38.8 °F 78% 29.88 in 5.0 mi West 3.5 mph - N/A   Haze
6:15 PM 45.0 °F - 39.0 °F 80% 29.88 in 7.0 mi Calm Calm - N/A Rain Light Rain
6:35 PM 45.0 °F - 39.7 °F 82% 29.87 in 7.0 mi Calm Calm - N/A   Overcast
6:55 PM 45.1 °F 43.7 °F 39.6 °F 81% 29.85 in 7.0 mi SSE 3.5 mph - N/A   Overcast
7:15 PM 44.8 °F - 39.9 °F 83% 29.86 in 7.0 mi Calm Calm - N/A   Overcast
7:35 PM 44.4 °F - 39.4 °F 82% 29.86 in 2.5 mi Calm Calm - N/A   Haze
7:55 PM 43.9 °F 40.5 °F 39.2 °F 84% 29.84 in 5.0 mi SE 5.8 mph - N/A   Unknown
8:15 PM 43.7 °F 38.6 °F 38.7 °F 82% 29.83 in 4.0 mi SE 9.2 mph - N/A   Unknown
8:35 PM 43.3 °F 38.6 °F 37.8 °F 81% 29.83 in 5.0 mi SE 8.1 mph - N/A   Haze
8:55 PM 43.2 °F 41.5 °F 37.6 °F 81% 29.83 in 4.0 mi SE 3.5 mph - N/A   Haze
9:15 PM 43.0 °F - 37.6 °F 81% 29.84 in 7.0 mi Calm Calm - N/A Rain Light Rain
9:35 PM 42.1 °F 38.4 °F 38.1 °F 86% 29.83 in 4.0 mi SSE 5.8 mph - N/A   Unknown
9:55 PM 41.9 °F 37.5 °F 38.1 °F 86% 29.82 in 5.0 mi SE 6.9 mph - N/A   Overcast
10:15 PM 42.4 °F 38.1 °F 37.6 °F 83% 29.82 in 4.0 mi SE 6.9 mph - N/A   Unknown
10:35 PM 42.3 °F 37.9 °F 37.6 °F 83% 29.80 in 5.0 mi East 6.9 mph - N/A   Unknown
10:55 PM 42.4 °F 38.1 °F 37.4 °F 82% 29.79 in 7.0 mi East 6.9 mph - N/A   Overcast
11:15 PM 42.3 °F 40.5 °F 36.9 °F 81% 29.82 in 7.0 mi South 3.5 mph - N/A   Overcast
11:35 PM 41.9 °F 38.2 °F 37.4 °F 84% 29.83 in 10.0 mi SW 5.8 mph - N/A Rain Light Rain
11:55 PM 41.5 °F 37.8 °F 37.6 °F 86% 29.80 in 7.0 mi South 5.8 mph - N/A   Unknown